Starlink 35677

operational
NORAD ID: 66220 Int'l Des: 2025-244 Owner: SPXS Country: US Constellation: starlink
NOTLE

关于 Starlink 35677

正在加载描述...

实时位置

正在加载3D地球...

即将过境

高度历史

Altitude vs Time

uPlot chart will show altitude changes over time

两行轨道根数

1 66220U 25244Q 25350.47814676 .00036780 00000-0 92448-3 0 9995
2 66220 53.1603 258.2522 0001378 89.6511 270.4651 15.39638372 8898
Epoch: Dec 16, 2025 • Age: 23 hours

当前状态

高度 451.0 km
速度 7.64 km/s
星下点 -14.28°S, 153.68°W
发射日期 Oct 28, 2025
运行时间 0.1 years
类型 internet

技术详情

分类 Payload
质量 575.00 kg
干质量 530.00 kg
总质量 575.00 kg
长度 0.30 m
直径 4.10 m
跨度 29.00 m
形状 Box + pan
制造商 SPXS
平台类型 Starlink V2MO
阶段状态 In Orbit
所有者/国家 SPXS/US

大型星座

Loading constellations...